Погода в Зеркальном

Россия / Приморский край     44°13′00″N   135°33′10″E
темп.,
°C
ветер,
м/с
пор.,
м/с
влажн.,
%
обл.,
%
осадки,
мм/ч
давл.,
гПа
погр.,
м
21 января, чт
чт2101:00−13зсз228484 0.0 102232
04:00−12зсз238644 0.0 101934
07:00−12зсз23893 0.0 101941
10:00−8зюз213845 0.0 1020643
13:00−1зсз613590 0.0 10191145
16:00−3сз4116011 0.0 10191098
19:00−9сз3377100 0.0 102172
22:00−11зсз3377100 0.0 102266
22 января, пт
пт2201:00−12зсз3476100 0.0 102189
04:00−13зсз347258 0.0 102187
07:00−14зсз347033 0.0 102184
10:00−13зсз356017 0.0 1023147
13:00−8зсз49460 0.0 1023873
16:00−8зсз59510 0.0 10231136
19:00−13зсз23730 0.0 102563
22:00−16зсз23790 0.0 102751
23 января, сб
сб2301:00−17зсз33770 0.0 102868
04:00−18зсз34730 0.0 102987
07:00−17зсз34720 0.0 102986
10:00−15зсз34670 0.0 1030155
13:00−8зсз24550 0.0 1028490
16:00−6зсз24550 0.0 1027535
19:00−11сз22800 0.0 102824
22:00−13сз22770 0.0 102930
24 января, вс
вс2401:00−14зсз22670 0.0 102839
04:00−13зсз22630 0.0 102838
07:00−13зсз22620 0.0 102736
10:00−9зсз23570 0.0 102895
13:00−2з23510 0.0 1026238
16:00+1з24610 0.0 1026269
19:00−5зсз23720 0.0 102728
22:00−8зсз33720 0.0 102859
25 января, пн
пн2501:00−8зсз346579 0.0 102883
04:00−8зсз346389 0.0 102975
07:00−9зсз336562 0.0 103048
10:00−7зсз236032 0.0 103199
13:000зюз12510 0.0 1030264
16:000юв22580 0.0 1029218
19:00−8всв11820 0.0 103038
22:00−8ссв118641 0.0 103038